| time (UTC) | temp F | wind direction | speed knots | gust knots | rain 1hr in | rain 24hr in | rain mn in | humidity % | barometer mb |
| 20260505033749 | 50 | 0 | 0.0 | 0.0 | 0.00 | 0.00 | 0.00 | 55 | 1011.1 |
| 20260505032249 | 50 | 0 | 0.0 | 0.9 | 0.00 | 0.00 | 0.00 | 57 | 1011.0 |
| 20260505030749 | 51 | 0 | 0.0 | 0.0 | 0.00 | 0.00 | 0.00 | 61 | 1011.1 |
| 20260505025249 | 52 | 0 | 0.0 | 0.9 | 0.00 | 0.00 | 0.00 | 63 | 1011.2 |
| 20260505023749 | 53 | 0 | 0.0 | 0.9 | 0.00 | 0.00 | 0.00 | 63 | 1011.2 |
| 20260505022249 | 54 | 203 | 0.9 | 0.9 | 0.00 | 0.00 | 0.00 | 66 | 1011.1 |
| 20260505020749 | 55 | 0 | 0.0 | 0.0 | 0.00 | 0.00 | 0.00 | 68 | 1010.9 |
| 20260505015249 | 57 | 0 | 0.0 | 0.9 | 0.00 | 0.00 | 0.00 | 70 | 1010.9 |
| 20260505013749 | 58 | 0 | 0.0 | 0.0 | 0.00 | 0.00 | 0.00 | 70 | 1010.8 |
| 20260505012249 | 60 | 0 | 0.0 | 0.9 | 0.00 | 0.00 | 0.00 | 70 | 1010.7 |
| 20260505010749 | 62 | 0 | 0.0 | 0.9 | 0.00 | 0.00 | 0.00 | 68 | 1010.4 |
| 20260505005249 | 65 | 203 | 0.9 | 0.9 | 0.00 | 0.00 | 0.00 | 62 | 1010.3 |
| 20260505003749 | 67 | 0 | 0.0 | 0.9 | 0.00 | 0.00 | 0.00 | 58 | 1010.3 |
| 20260505002249 | 70 | 203 | 0.9 | 0.9 | 0.00 | 0.00 | 0.00 | 53 | 1010.1 |
| 20260505000749 | 73 | 0 | 0.0 | 0.9 | 0.00 | 0.00 | 0.00 | 49 | 1010.2 |
| 20260504235249 | 74 | 227 | 0.9 | 2.6 | 0.00 | 0.00 | 0.00 | 44 | 1010.0 |
| 20260504233749 | 74 | 202 | 1.7 | 2.6 | 0.00 | 0.00 | 0.00 | 45 | 1010.1 |
| 20260504232249 | 74 | 251 | 1.7 | 3.5 | 0.00 | 0.00 | 0.00 | 44 | 1010.0 |
| 20260504230749 | 75 | 267 | 7.0 | 7.8 | 0.00 | 0.00 | 0.00 | 43 | 1010.2 |
| 20260504225249 | 76 | 288 | 6.1 | 7.8 | 0.00 | 0.00 | 0.00 | 42 | 1010.2 |
| 20260504223749 | 76 | 271 | 2.6 | 6.1 | 0.00 | 0.00 | 0.00 | 42 | 1010.2 |
| 20260504222249 | 76 | 271 | 6.1 | 12.2 | 0.00 | 0.00 | 0.00 | 42 | 1010.1 |
| 20260504220749 | 76 | 282 | 6.1 | 10.4 | 0.00 | 0.00 | 0.00 | 42 | 1010.1 |
| 20260504215249 | 76 | 275 | 7.0 | 7.8 | 0.00 | 0.00 | 0.00 | 45 | 1010.2 |
| 20260504213749 | 76 | 275 | 1.7 | 5.2 | 0.00 | 0.00 | 0.00 | 45 | 1010.2 |
| 20260504212249 | 76 | 273 | 5.2 | 7.8 | 0.00 | 0.00 | 0.00 | 45 | 1010.3 |
| 20260504210749 | 77 | 215 | 1.7 | 8.7 | 0.00 | 0.00 | 0.00 | 46 | 1010.4 |
| 20260504205249 | 76 | 229 | 3.5 | 8.7 | 0.00 | 0.00 | 0.00 | 46 | 1010.6 |
| 20260504203749 | 75 | 183 | 1.7 | 6.1 | 0.00 | 0.00 | 0.00 | 47 | 1010.7 |
| 20260504202249 | 75 | 304 | 4.3 | 8.7 | 0.00 | 0.00 | 0.00 | 46 | 1010.9 |
| 20260504200749 | 75 | 259 | 2.6 | 8.7 | 0.00 | 0.00 | 0.00 | 51 | 1011.1 |
| 20260504195249 | 74 | 329 | 3.5 | 6.1 | 0.00 | 0.00 | 0.00 | 49 | 1011.2 |
| 20260504193749 | 74 | 306 | 2.6 | 8.7 | 0.00 | 0.00 | 0.00 | 52 | 1011.7 |
| 20260504192249 | 74 | 284 | 7.8 | 8.7 | 0.00 | 0.00 | 0.00 | 52 | 1012.0 |
| 20260504190749 | 73 | 355 | 2.6 | 4.3 | 0.00 | 0.00 | 0.00 | 55 | 1012.3 |
| 20260504185249 | 72 | 311 | 1.7 | 7.0 | 0.00 | 0.00 | 0.00 | 52 | 1012.6 |
| 20260504183820 | 72 | 270 | 1.7 | 5.2 | 0.00 | 0.00 | 0.00 | 52 | 1012.9 |
| 20260504183749 | 72 | 270 | 1.7 | 5.2 | 0.00 | 0.00 | 0.00 | 52 | 1012.9 |
| 20260504182249 | 71 | 261 | 2.6 | 5.2 | 0.00 | 0.00 | 0.00 | 56 | 1013.1 |
| 20260504180749 | 70 | 303 | 0.9 | 3.5 | 0.00 | 0.00 | 0.00 | 53 | 1013.1 |
| 20260504175249 | 70 | 153 | 0.9 | 3.5 | 0.00 | 0.00 | 0.00 | 56 | 1013.4 |
| 20260504173749 | 69 | 297 | 4.3 | 7.0 | 0.00 | 0.00 | 0.00 | 56 | 1013.6 |
| 20260504172249 | 69 | 117 | 1.7 | 6.1 | 0.00 | 0.00 | 0.00 | 55 | 1013.8 |
| 20260504170749 | 68 | 275 | 1.7 | 6.1 | 0.00 | 0.00 | 0.00 | 54 | 1014.1 |
| 20260504150749 | 59 | 57 | 1.7 | 7.8 | 0.00 | 0.00 | 0.00 | 64 | 1016.5 |
| 20260504140749 | 55 | 69 | 2.6 | 7.8 | 0.00 | 0.00 | 0.00 | 68 | 1017.2 |
| 20260504130749 | 53 | 82 | 1.7 | 3.5 | 0.00 | 0.00 | 0.00 | 62 | 1016.8 |
| 20260504080749 | 36 | 336 | 0.9 | 0.9 | 0.00 | 0.00 | 0.00 | 31 | 1016.0 |
| 20260504050749 | 40 | 0 | 0.0 | 0.0 | 0.00 | 0.00 | 0.00 | 42 | 1016.1 |
| 20260504045249 | 40 | 0 | 0.0 | 0.0 | 0.00 | 0.00 | 0.00 | 42 | 1015.9 |
| 20260504043749 | 40 | 0 | 0.0 | 0.0 | 0.00 | 0.00 | 0.00 | 44 | 1015.8 |
| 20260504042249 | 40 | 0 | 0.0 | 0.0 | 0.00 | 0.00 | 0.00 | 44 | 1015.7 |
| 20260504040749 | 41 | 0 | 0.0 | 0.9 | 0.00 | 0.00 | 0.00 | 48 | 1015.7 |
| 20260504035249 | 41 | 0 | 0.0 | 0.9 | 0.00 | 0.00 | 0.00 | 49 | 1015.4 |